Location: Kerb�bon
(47.7970°N, 3.3487°W)
Time: 10:11:41
(UTC+00:00)

OBJECT-B - Pass Details

Date: 12 May 2021
Orbit: 414 x 423 km, 97.0° (Epoch: 05 June)

Event Time Altitude Azimuth Distance (km) Brightness Sun altitude
Rises 20:30:23 0° 189° (S) 2,371 4.3 -7.7°
Reaches altitude 10° 20:32:32 10° 201° (SSW) 1,513 3.4 -8.0°
Maximum altitude 20:35:24 29° 264° (W) 813 2.7 -8.3°
Drops below altitude 10° 20:38:19 10° 327° (NNW) 1,527 5.0 -8.7°
Sets 20:40:30 0° 339° (NNW) 2,398 5.8 -9.0°
